Wind_Speed
11 12 12 13 13 14 14 14 14 14 13 13 12 11 9 11 10 7 6 7 7 14 11 8 12 19 22 7 15 8 5 3 3 5 2 17 10 7 15 18 13 6 17 17 38
12 12 12 13 14 14 14 14 15 16 15 14 12 11 9 11 9 12 12 11 8 9 7 11 12 15 7 5 7 3 5 13 12 5 8 7 6 8 2 19 16 19 16 22 35
13 13 14 14 15 15 16 16 16 16 16 15 12 9 8 7 4 5 13 15 12 11 11 15 20 10 9 6 5 7 5 9 5 12 13 7 14 14 6 12 22 20 17 13 22
14 14 14 15 16 16 17 17 17 17 18 14 8 6 5 1 3 5 4 10 12 10 7 10 9 7 6 3 9 7 9 10 11 11 10 7 4 8 3 7 11 21 17 11 12
14 15 16 16 17 17 18 18 19 19 16 10 5 4 2 3 7 2 3 8 9 8 10 10 11 10 12 3 11 7 18 5 13 13 15 17 18 1 5 12 14 14 14 13 11
16 16 17 18 18 18 18 17 18 19 12 6 3 3 1 5 4 6 4 7 7 10 13 17 10 12 13 4 18 6 21 8 11 15 11 10 3 3 3 6 12 16 15 16 15
18 17 18 18 19 18 17 17 17 16 8 3 1 2 5 10 1 4 6 6 9 18 12 20 17 7 12 8 17 10 9 7 7 12 5 5 4 2 2 7 8 15 15 12 12
20 19 20 20 20 17 16 16 17 11 6 4 2 1 6 3 3 7 9 14 14 16 17 18 16 6 5 4 4 5 3 8 5 16 4 6 5 7 1 6 9 9 14 13 8
21 22 21 21 20 16 14 16 14 8 5 5 2 3 7 4 5 11 12 12 8 10 12 11 10 4 10 4 3 4 3 8 4 8 8 10 2 8 1 5 7 6 6 7 8
23 24 24 22 19 16 14 15 11 8 4 4 8 6 7 4 6 6 5 7 5 7 5 5 3 3 6 2 4 2 5 8 4 6 13 10 9 6 9 6 2 8 7 6 6
26 25 25 22 18 17 16 5 1 2 6 9 4 6 7 7 5 7 5 10 7 4 6 7 2 6 13 12 7 5 5 8 6 6 8 14 9 12 10 7 7 5 8 8 11
28 27 27 23 18 17 11 4 10 10 7 16 19 2 2 15 7 8 8 5 6 7 8 4 7 13 14 15 10 10 9 11 8 11 17 10 10 10 14 14 11 8 8 10 5
28 29 28 23 17 14 10 15 15 16 3 9 11 11 7 6 8 9 9 7 8 8 9 9 11 15 15 13 8 4 6 6 7 12 9 7 5 10 10 6 6 8 8 5 6
29 29 29 26 10 9 9 16 11 15 3 6 7 5 5 8 2 15 13 9 6 8 9 8 12 10 11 10 6 5 11 9 5 5 5 9 4 8 12 12 13 14 11 11 8
30 29 28 22 17 7 13 19 16 12 4 14 7 9 6 6 10 6 8 5 9 9 0 9 9 10 2 7 5 1 6 2 6 4 4 6 2 5 12 13 17 18 14 13 10
30 29 29 10 12 19 20 18 19 1 6 7 8 8 7 10 7 6 5 4 8 9 4 9 6 3 2 6 8 11 3 4 4 1 2 4 1 2 9 15 17 16 16 16 12
34 30 29 17 8 6 21 8 3 4 5 9 10 11 12 8 8 9 9 8 6 2 6 9 9 4 4 6 10 8 3 3 2 3 4 6 5 6 13 10 12 19 17 18 17
38 31 21 22 20 14 15 3 5 11 12 5 4 2 6 11 8 10 8 7 10 8 5 8 5 8 8 6 4 7 6 5 1 4 6 7 5 3 6 15 8 10 17 17 16
35 18 10 19 15 13 2 5 5 7 13 3 6 6 7 6 2 6 7 9 6 3 4 6 6 8 7 5 1 8 4 9 4 6 4 1 5 4 13 15 17 16 8 17 18
26 10 15 18 15 11 3 7 8 14 19 7 7 6 2 3 6 6 8 5 3 5 2 5 3 2 5 6 6 6 6 6 5 4 3 3 2 5 10 17 16 19 19 15 16
8 4 15 19 25 4 6 6 13 19 17 0 9 9 8 4 5 4 2 6 5 6 3 4 2 4 4 6 5 6 6 5 6 4 2 3 5 4 5 11 16 19 22 21 16
8 4 7 24 4 3 10 10 16 24 10 2 5 7 8 6 3 5 1 5 8 6 4 6 2 4 3 4 6 4 4 5 4 2 2 4 5 4 4 8 12 20 25 9 9
5 4 18 18 7 8 9 20 22 23 18 8 5 7 9 5 4 4 7 7 5 4 2 5 2 3 8 9 6 4 3 4 3 5 6 5 3 1 3 6 9 14 16 7 4
4 3 3 5 5 9 12 16 20 22 18 7 6 8 5 1 6 4 3 8 7 6 5 3 2 4 4 6 3 2 2 3 4 1 3 1 3 3 2 6 9 11 16 4 5
3 4 7 4 6 13 12 18 20 20 14 8 5 5 4 3 7 6 7 7 8 11 5 3 4 5 9 7 7 6 8 8 7 5 5 9 8 6 7 7 2 2 7 5 8
3 4 6 10 10 11 11 12 17 20 13 14 7 9 8 5 6 5 3 5 3 7 6 4 4 5 6 7 9 7 9 9 8 4 3 3 1 4 3 3 3 5 5 6 10
9 8 3 6 8 9 7 14 17 16 15 9 15 10 9 9 9 5 6 6 3 1 6 0 3 3 5 5 1 4 6 7 9 6 5 4 6 5 2 2 2 4 4 4 5
Wind_Direction
350 350 347 345 342 340 339 339 339 339 338 333 325 319 314 309 303 287 244 240 228 261 285 266 264 245 252 248 108 142 165 179 204 248 273 4 356 25 133 131 146 117 131 142 130
347 345 342 339 337 336 334 333 332 331 329 327 318 318 323 324 317 259 227 244 248 271 275 244 253 232 229 209 108 173 173 196 176 210 80 76 315 323 144 157 111 123 140 143 136
346 343 340 337 334 333 331 331 328 327 324 321 312 319 331 344 279 222 216 232 246 265 259 271 289 281 281 123 151 183 239 168 227 116 72 19 343 341 338 97 137 136 140 140 133
345 340 338 334 332 331 330 328 327 328 327 322 313 324 339 58 39 178 213 230 239 236 249 275 276 280 276 258 178 161 205 146 137 126 106 171 173 269 135 161 169 159 142 129 130
343 337 334 332 330 328 327 327 327 328 332 327 322 331 27 238 243 174 240 216 201 202 231 252 269 265 261 248 66 334 79 63 151 124 146 174 220 56 78 115 140 160 143 111 105
342 341 337 332 329 326 324 324 325 328 331 332 340 11 312 271 89 42 123 176 190 201 239 246 255 262 276 119 117 208 109 242 163 128 158 148 283 284 74 291 197 140 128 124 118
345 343 337 332 328 324 321 322 322 323 327 339 332 25 264 255 28 97 183 213 207 216 242 260 273 308 333 315 140 168 123 164 132 121 125 150 338 279 96 359 99 158 136 135 135
348 343 338 332 327 323 320 318 318 310 315 329 341 126 258 191 249 184 210 221 234 249 268 300 345 330 291 119 97 111 73 149 55 39 166 226 229 272 45 54 43 61 131 117 142
350 345 341 335 329 322 319 316 312 304 308 311 316 208 272 193 213 244 201 206 201 260 272 297 350 300 309 286 303 214 139 64 137 163 220 205 260 223 227 313 94 98 91 117 89
351 350 345 339 330 320 322 315 301 299 299 273 271 296 256 221 170 198 264 319 180 223 254 249 271 249 291 273 229 152 120 100 220 170 221 206 247 181 217 192 207 132 138 159 151
351 346 344 339 330 320 327 333 328 271 232 218 221 235 125 83 152 241 171 233 241 200 226 233 184 227 242 246 201 202 167 149 194 211 181 202 211 188 198 194 175 196 164 179 206
348 345 342 337 323 311 309 250 281 302 303 227 256 208 175 187 177 157 185 232 187 227 228 284 225 249 250 254 237 188 189 103 62 322 209 199 212 170 187 204 178 174 196 192 131
345 343 340 335 317 297 261 257 296 308 284 288 214 215 179 204 224 162 179 220 228 229 225 211 238 228 255 271 276 47 260 141 161 218 231 178 213 162 199 179 203 197 181 171 141
341 340 340 334 311 314 271 279 295 328 294 244 185 148 174 210 176 152 203 234 238 240 244 218 267 252 231 267 266 192 152 124 173 201 227 173 251 186 171 194 201 218 174 183 170
337 335 333 328 298 299 283 342 327 307 288 160 172 144 202 224 144 184 194 290 268 295 237 248 248 275 216 240 334 217 88 173 185 236 259 256 210 225 148 210 209 208 184 185 184
332 330 325 326 299 264 299 304 299 275 244 149 144 175 193 230 137 137 190 225 257 285 195 261 302 353 8 308 299 285 144 218 159 148 352 339 78 162 179 216 209 205 198 182 176
328 322 310 285 241 283 326 283 297 226 258 159 174 171 199 195 150 162 189 216 219 216 226 236 239 197 216 234 264 262 359 332 341 13 226 357 11 233 210 225 212 203 197 186 181
326 319 297 265 261 282 305 324 249 264 254 108 24 235 244 165 177 190 196 224 233 229 263 228 238 166 220 214 227 231 198 178 177 151 278 359 6 276 36 19 312 236 195 189 190
327 326 272 269 235 237 281 237 235 227 324 35 165 214 243 155 160 183 196 253 221 107 16 344 65 179 175 187 238 284 254 223 233 212 137 143 330 333 8 5 7 12 192 189 192
328 298 253 232 204 192 227 240 272 285 291 28 315 291 83 216 184 208 202 224 80 89 35 303 307 163 187 163 218 208 260 355 6 17 337 314 152 256 349 330 348 351 326 296 190
316 274 271 196 166 184 226 239 267 271 270 125 285 290 304 142 256 231 355 144 156 141 150 285 68 334 121 21 32 356 338 36 99 43 124 23 299 223 360 341 353 332 322 292 246
314 280 103 157 165 208 242 253 267 277 268 181 302 303 300 330 237 209 40 90 45 38 25 16 325 25 130 23 27 323 72 129 106 216 142 170 254 138 143 28 9 333 307 18 347
310 276 294 180 206 230 250 253 260 271 270 171 213 252 279 359 348 322 117 105 76 56 63 341 341 20 350 357 345 110 316 89 30 134 185 161 259 272 333 41 8 308 241 137 273
290 295 257 242 232 249 261 258 263 256 257 248 194 251 286 360 298 298 311 149 123 104 140 91 253 210 203 181 174 226 205 124 162 129 187 336 252 275 120 224 177 257 348 6 86
240 269 3 316 326 325 291 266 277 289 283 229 285 256 219 199 272 256 233 174 168 164 146 158 275 280 283 189 173 193 229 214 186 188 158 187 165 223 200 224 291 340 351 1 77
294 352 343 300 293 301 296 263 250 274 280 270 208 250 231 207 253 280 53 45 132 210 170 209 246 288 295 339 182 218 78 66 73 356 45 203 101 180 212 222 269 59 13 0 9
347 343 300 286 304 306 290 308 303 267 275 296 276 222 239 200 221 279 84 38 34 191 203 70 82 41 305 354 327 286 163 179 180 181 189 129 220 123 303 165 33 110 121 41 26
Height
802 800 798 796 794 792 789 787 784 782 780 778 776 774 772 770 768 768 765 759 759 758 759 760 759 758 760 761 779 797 816 823 816 816 803 788 783 766 762 769 769 769 777 782 793
801 799 797 795 793 791 789 786 783 781 779 776 774 773 771 770 768 765 756 757 757 758 758 759 755 752 758 759 781 800 810 800 790 791 798 793 796 783 774 772 778 778 781 784 792
801 799 796 794 792 789 787 785 782 780 777 775 772 772 771 770 770 753 752 754 755 756 757 757 756 752 756 753 776 784 792 775 782 789 790 800 793 778 788 789 776 782 784 786 790
800 798 795 793 790 788 785 783 780 778 775 772 771 771 770 771 772 750 751 752 753 754 756 756 753 756 760 756 750 773 764 770 774 786 796 804 804 802 784 788 781 776 778 786 791
800 797 794 791 788 785 783 781 778 775 773 771 771 771 771 771 759 750 749 750 752 754 755 755 756 752 758 747 763 779 774 776 774 780 792 795 797 783 784 774 776 778 781 787 793
799 796 793 790 786 783 781 778 776 774 772 771 771 771 771 772 748 748 749 750 752 753 752 751 749 742 745 746 767 769 771 780 774 782 787 790 788 780 784 776 776 776 783 790 795
798 795 792 788 785 781 779 777 775 773 771 771 771 771 771 760 749 748 750 750 750 750 748 745 742 745 741 747 754 765 776 779 776 784 792 789 798 792 781 776 777 777 784 786 793
797 794 790 786 783 780 777 775 773 772 771 771 771 772 769 749 748 748 748 748 748 748 747 744 741 740 745 739 752 766 771 794 801 796 791 795 812 791 785 785 785 781 783 790 795
797 793 789 785 781 778 776 774 771 771 771 771 772 772 763 748 748 745 746 746 747 748 746 745 745 751 748 762 770 761 788 795 803 791 795 795 807 791 789 791 788 788 788 789 794
796 792 788 783 780 777 775 772 770 770 770 772 772 778 754 747 744 744 745 745 746 747 749 751 756 769 766 775 804 782 784 795 805 793 797 792 793 790 787 792 790 787 789 786 794
796 791 787 782 778 775 773 771 773 773 769 761 753 749 738 743 744 745 745 746 745 749 770 757 777 788 771 757 754 753 773 782 794 778 786 785 786 787 785 790 794 792 791 792 791
795 790 785 781 777 774 773 772 761 758 765 747 743 738 737 739 746 742 744 753 754 770 759 771 785 758 745 743 747 753 768 783 798 788 797 779 784 781 782 781 784 789 792 789 789
794 789 783 779 775 772 769 765 757 754 764 746 735 736 737 737 742 745 742 744 755 763 762 775 761 741 744 747 749 753 765 776 787 775 761 773 786 785 782 780 784 783 784 789 792
793 788 783 776 775 771 766 757 756 754 782 755 743 735 733 732 744 733 736 743 745 758 752 757 738 742 746 750 745 768 745 753 763 778 805 767 816 788 784 786 782 780 783 786 789
792 787 783 780 775 771 763 757 755 753 815 739 736 725 724 738 738 740 733 736 754 750 744 762 747 748 746 745 735 754 737 748 754 773 776 774 793 782 786 792 779 771 773 778 780
789 785 780 778 773 764 763 760 757 790 802 741 729 738 741 734 735 735 738 735 734 746 739 745 726 731 735 731 734 730 744 749 756 777 812 784 795 800 789 771 767 766 766 772 776
784 781 776 775 768 764 763 759 792 800 726 742 741 732 737 741 740 742 749 756 766 774 771 750 744 730 728 749 740 744 763 810 816 817 817 784 788 787 762 755 757 758 760 764 770
778 772 767 764 763 766 765 778 803 758 744 717 725 728 741 733 737 738 748 760 742 747 764 774 781 744 730 744 753 755 765 808 818 823 815 780 800 786 775 767 755 750 754 762 769
772 766 761 755 759 764 772 796 775 748 725 726 728 745 744 732 734 739 746 749 732 734 766 770 762 730 727 728 737 758 773 751 779 780 808 803 788 761 766 773 768 769 758 761 764
773 766 751 751 756 762 778 784 759 733 730 724 753 734 748 738 746 745 747 727 731 725 725 747 770 732 727 725 730 745 742 784 789 817 816 812 809 807 788 788 780 779 782 773 758
774 766 737 742 753 764 781 767 747 727 724 733 743 744 739 738 735 740 737 727 720 729 724 737 757 751 732 762 767 768 773 772 793 812 824 831 819 791 799 796 791 782 785 775 761
778 773 737 741 763 761 767 754 743 731 717 723 727 733 738 731 736 737 738 731 719 725 748 743 755 780 780 755 748 751 764 771 806 817 818 822 814 782 791 788 789 792 778 765 763
786 768 740 737 768 764 751 745 736 732 727 726 733 726 724 735 747 734 731 725 722 732 749 746 769 796 795 776 759 769 762 760 771 793 814 824 811 781 777 779 782 777 786 778 769
790 775 746 739 739 750 753 747 740 717 719 714 722 721 728 734 733 741 734 725 725 734 737 741 760 778 799 787 772 776 763 760 773 800 803 802 797 785 785 783 790 787 755 764 763
788 773 765 768 760 759 747 743 743 739 716 711 724 723 730 746 746 744 732 731 726 736 734 746 773 761 759 753 761 764 762 760 776 781 793 790 782 786 787 781 778 772 770 767 763
790 783 776 770 759 753 746 742 739 731 726 726 729 722 725 738 739 746 734 737 738 736 740 739 770 757 766 747 757 767 766 758 771 776 782 781 789 778 781 779 776 772 775 776 776
788 784 782 770 762 761 750 743 737 724 716 713 717 721 727 723 716 716 718 724 730 737 747 747 762 773 784 757 754 780 769 763 765 776 774 790 781 785 789 779 780 776 776 774 778